| time (UTC) | temp C | wind direction | speed KPH | gust KPH | rain 1hr cm | rain 24hr cm | rain mn cm | humidity % | barometer mb |
| 20260507155524 | 20 | 149 | 4.8 | 8.0 | 0.00 | 0.00 | 0.00 | 42 | 1019.2 |
| 20260507154540 | 20 | 108 | 3.2 | 4.8 | 0.00 | 0.00 | 0.00 | 43 | 1019.3 |
| 20260507153521 | 20 | 141 | 4.8 | 6.4 | 0.00 | 0.00 | 0.00 | 42 | 1019.3 |
| 20260507152532 | 19 | 134 | 4.8 | 6.4 | 0.00 | 0.00 | 0.00 | 42 | 1019.4 |
| 20260507151519 | 18 | 127 | 4.8 | 6.4 | 0.00 | 0.00 | 0.00 | 43 | 1019.5 |
| 20260507150528 | 18 | 93 | 3.2 | 4.8 | 0.00 | 0.00 | 0.00 | 44 | 1019.6 |
| 20260507145535 | 18 | 179 | 3.2 | 6.4 | 0.00 | 0.00 | 0.00 | 44 | 1019.6 |
| 20260507144544 | 19 | 130 | 3.2 | 4.8 | 0.00 | 0.00 | 0.00 | 43 | 1019.6 |
| 20260507143532 | 18 | 104 | 3.2 | 6.4 | 0.00 | 0.00 | 0.00 | 44 | 1019.6 |
| 20260507142519 | 17 | 151 | 4.8 | 8.0 | 0.00 | 0.00 | 0.00 | 48 | 1019.6 |
| 20260507141525 | 18 | 32 | 3.2 | 6.4 | 0.00 | 0.00 | 0.00 | 46 | 1019.7 |
| 20260507140519 | 17 | 25 | 3.2 | 4.8 | 0.00 | 0.00 | 0.00 | 47 | 1019.9 |
| 20260507135521 | 17 | 118 | 3.2 | 6.4 | 0.00 | 0.00 | 0.00 | 48 | 1019.9 |
| 20260507134527 | 16 | 4 | 1.6 | 4.8 | 0.00 | 0.00 | 0.00 | 50 | 1019.9 |
| 20260507133524 | 16 | 130 | 3.2 | 3.2 | 0.00 | 0.00 | 0.00 | 50 | 1020.1 |
| 20260507132522 | 15 | 290 | 1.6 | 4.8 | 0.00 | 0.00 | 0.00 | 53 | 1020.2 |
| 20260507131543 | 14 | 230 | 1.6 | 3.2 | 0.00 | 0.00 | 0.00 | 55 | 1020.2 |
| 20260507130530 | 13 | 159 | 1.6 | 3.2 | 0.00 | 0.00 | 0.00 | 58 | 1020.2 |
| 20260507125520 | 13 | 85 | 1.6 | 3.2 | 0.00 | 0.00 | 0.00 | 62 | 1020.2 |
| 20260507124531 | 12 | 85 | 0.0 | 1.6 | 0.00 | 0.00 | 0.00 | 65 | 1020.1 |
| 20260507123520 | 11 | 203 | 0.0 | 3.2 | 0.00 | 0.00 | 0.00 | 69 | 1020.1 |
| 20260507122605 | 10 | 270 | 0.0 | 1.6 | 0.00 | 0.00 | 0.00 | 74 | 1020.1 |
| 20260507121533 | 8 | 0.0 | 0.0 | 0.00 | 0.00 | 0.00 | 79 | 1020.0 | |
| 20260507120542 | 6 | 0.0 | 0.0 | 0.00 | 0.00 | 0.00 | 86 | 1019.8 | |
| 20260507115527 | 5 | 0.0 | 0.0 | 0.00 | 0.00 | 0.00 | 90 | 1019.7 | |
| 20260507114540 | 4 | 0.0 | 0.0 | 0.00 | 0.00 | 0.00 | 92 | 1019.5 | |
| 20260507113543 | 3 | 0.0 | 0.0 | 0.00 | 0.00 | 0.00 | 93 | 1019.5 | |
| 20260507112528 | 3 | 0.0 | 0.0 | 0.00 | 0.00 | 0.00 | 93 | 1019.4 | |
| 20260507111526 | 3 | 0.0 | 0.0 | 0.00 | 0.00 | 0.00 | 93 | 1019.4 | |
| 20260507110524 | 3 | 0.0 | 0.0 | 0.00 | 0.00 | 0.00 | 93 | 1019.4 | |
| 20260507105523 | 3 | 0.0 | 0.0 | 0.00 | 0.00 | 0.00 | 93 | 1019.5 | |
| 20260507104519 | 3 | 0.0 | 0.0 | 0.00 | 0.00 | 0.00 | 92 | 1019.5 | |
| 20260507103521 | 3 | 0.0 | 0.0 | 0.00 | 0.00 | 0.00 | 90 | 1019.6 | |
| 20260507102531 | 4 | 0.0 | 0.0 | 0.00 | 0.00 | 0.00 | 90 | 1019.6 | |
| 20260507101541 | 4 | 0.0 | 0.0 | 0.00 | 0.00 | 0.00 | 90 | 1019.7 | |
| 20260507100527 | 4 | 0.0 | 0.0 | 0.00 | 0.00 | 0.00 | 90 | 1019.7 | |
| 20260507095534 | 4 | 0.0 | 0.0 | 0.00 | 0.00 | 0.00 | 90 | 1019.7 | |
| 20260507094524 | 4 | 0.0 | 0.0 | 0.00 | 0.03 | 0.00 | 89 | 1019.8 | |
| 20260507093532 | 4 | 0.0 | 0.0 | 0.00 | 0.03 | 0.00 | 87 | 1019.7 | |
| 20260507092521 | 5 | 0.0 | 0.0 | 0.00 | 0.05 | 0.00 | 87 | 1019.7 | |
| 20260507091524 | 4 | 0.0 | 0.0 | 0.00 | 0.05 | 0.00 | 86 | 1019.6 | |
| 20260507090558 | 5 | 0.0 | 0.0 | 0.00 | 0.05 | 0.00 | 86 | 1019.5 | |
| 20260507085520 | 5 | 0.0 | 0.0 | 0.00 | 0.05 | 0.00 | 84 | 1019.6 | |
| 20260507084606 | 5 | 0.0 | 0.0 | 0.00 | 0.05 | 0.00 | 82 | 1019.4 | |
| 20260507083525 | 6 | 0.0 | 0.0 | 0.00 | 0.05 | 0.00 | 79 | 1019.5 | |
| 20260507082542 | 7 | 0.0 | 0.0 | 0.00 | 0.05 | 0.00 | 76 | 1019.4 | |
| 20260507081522 | 7 | 0.0 | 0.0 | 0.00 | 0.05 | 0.00 | 75 | 1019.5 | |
| 20260507080530 | 7 | 0.0 | 0.0 | 0.00 | 0.05 | 0.00 | 76 | 1019.5 | |
| 20260507075559 | 6 | 0.0 | 0.0 | 0.00 | 0.05 | 0.00 | 83 | 1019.5 | |
| 20260507074549 | 6 | 0.0 | 0.0 | 0.00 | 0.05 | 0.00 | 82 | 1019.6 | |
| 20260507073535 | 7 | 0.0 | 0.0 | 0.00 | 0.05 | 0.00 | 80 | 1019.7 | |
| 20260507072525 | 7 | 0.0 | 0.0 | 0.00 | 0.05 | 0.00 | 82 | 1019.8 | |
| 20260507071533 | 6 | 0.0 | 0.0 | 0.00 | 0.05 | 0.00 | 82 | 1019.9 | |
| 20260507070522 | 6 | 0.0 | 0.0 | 0.00 | 0.05 | 0.00 | 87 | 1020.0 | |
| 20260507065526 | 5 | 0.0 | 0.0 | 0.00 | 0.05 | 0.00 | 93 | 1020.1 | |
| 20260507064540 | 4 | 0.0 | 0.0 | 0.00 | 0.05 | 0.00 | 94 | 1020.3 | |
| 20260507063522 | 4 | 0.0 | 0.0 | 0.00 | 0.05 | 0.00 | 94 | 1020.2 | |
| 20260507062548 | 4 | 0.0 | 0.0 | 0.00 | 0.05 | 0.00 | 94 | 1020.3 | |
| 20260507061525 | 5 | 0.0 | 0.0 | 0.00 | 0.05 | 0.00 | 93 | 1020.3 | |
| 20260507060523 | 5 | 0.0 | 0.0 | 0.00 | 0.05 | 0.00 | 93 | 1020.3 | |
| 20260507055522 | 5 | 0.0 | 0.0 | 0.00 | 0.05 | 0.00 | 93 | 1020.3 | |
| 20260507054519 | 4 | 0.0 | 0.0 | 0.00 | 0.05 | 0.00 | 91 | 1020.3 | |
| 20260507053520 | 4 | 0.0 | 0.0 | 0.00 | 0.05 | 0.00 | 91 | 1020.1 | |
| 20260507052608 | 5 | 0.0 | 0.0 | 0.00 | 0.05 | 0.00 | 91 | 1020.3 | |
| 20260507051541 | 5 | 0.0 | 0.0 | 0.00 | 0.05 | 0.00 | 89 | 1020.2 | |
| 20260507050526 | 5 | 0.0 | 0.0 | 0.00 | 0.05 | 0.00 | 88 | 1020.1 | |
| 20260507045534 | 5 | 0.0 | 0.0 | 0.00 | 0.05 | 0.05 | 87 | 1020.3 | |
| 20260507044523 | 5 | 0.0 | 0.0 | 0.00 | 0.05 | 0.05 | 85 | 1020.3 | |
| 20260507043528 | 6 | 0.0 | 0.0 | 0.00 | 0.05 | 0.05 | 84 | 1020.5 | |
| 20260507042521 | 5 | 0.0 | 0.0 | 0.00 | 0.05 | 0.05 | 83 | 1020.4 | |
| 20260507041524 | 6 | 0.0 | 0.0 | 0.00 | 0.05 | 0.05 | 85 | 1020.4 | |
| 20260507040530 | 6 | 0.0 | 0.0 | 0.00 | 0.05 | 0.05 | 87 | 1020.3 | |
| 20260507035519 | 6 | 0.0 | 0.0 | 0.00 | 0.05 | 0.05 | 88 | 1020.3 | |
| 20260507034525 | 6 | 0.0 | 0.0 | 0.00 | 0.05 | 0.05 | 84 | 1020.3 | |
| 20260507033526 | 6 | 0.0 | 0.0 | 0.00 | 0.05 | 0.05 | 80 | 1020.3 | |
| 20260507032521 | 7 | 0.0 | 0.0 | 0.00 | 0.05 | 0.05 | 78 | 1020.3 | |
| 20260507031522 | 6 | 0.0 | 0.0 | 0.00 | 0.05 | 0.05 | 78 | 1020.3 | |
| 20260507030529 | 6 | 0.0 | 0.0 | 0.00 | 0.05 | 0.05 | 77 | 1020.3 | |
| 20260507025518 | 6 | 0.0 | 0.0 | 0.00 | 0.05 | 0.05 | 74 | 1020.3 | |
| 20260507024528 | 7 | 0.0 | 0.0 | 0.00 | 0.05 | 0.05 | 71 | 1020.2 | |
| 20260507023535 | 8 | 0.0 | 0.0 | 0.00 | 0.05 | 0.05 | 71 | 1020.0 | |
| 20260507022604 | 7 | 0.0 | 0.0 | 0.00 | 0.05 | 0.05 | 70 | 1020.0 | |
| 20260507021532 | 8 | 0.0 | 0.0 | 0.00 | 0.05 | 0.05 | 69 | 1019.7 | |
| 20260507015525 | 9 | 0.0 | 0.0 | 0.00 | 0.05 | 0.05 | 63 | 1019.5 | |
| 20260507014559 | 10 | 0.0 | 0.0 | 0.00 | 0.05 | 0.05 | 59 | 1019.4 | |
| 20260507013541 | 10 | 0.0 | 0.0 | 0.00 | 0.05 | 0.05 | 55 | 1019.3 | |
| 20260507012527 | 11 | 0.0 | 0.0 | 0.00 | 0.05 | 0.05 | 52 | 1019.2 | |
| 20260507011525 | 11 | 0.0 | 0.0 | 0.00 | 0.05 | 0.05 | 49 | 1019.2 | |
| 20260507010523 | 12 | 0.0 | 0.0 | 0.00 | 0.05 | 0.05 | 47 | 1019.1 | |
| 20260507005522 | 13 | 0.0 | 0.0 | 0.00 | 0.05 | 0.05 | 42 | 1019.1 | |
| 20260507004530 | 13 | 279 | 1.6 | 4.8 | 0.00 | 0.05 | 0.05 | 40 | 1019.1 |
| 20260507003519 | 13 | 316 | 0.0 | 4.8 | 0.00 | 0.05 | 0.05 | 39 | 1019.0 |
| 20260507002530 | 13 | 287 | 3.2 | 6.4 | 0.00 | 0.05 | 0.05 | 38 | 1019.0 |
| 20260507001520 | 13 | 282 | 1.6 | 6.4 | 0.00 | 0.05 | 0.05 | 38 | 1018.9 |
| 20260507000525 | 14 | 291 | 6.4 | 9.7 | 0.00 | 0.05 | 0.05 | 37 | 1018.9 |
| 20260506235533 | 14 | 292 | 3.2 | 6.4 | 0.00 | 0.08 | 0.05 | 36 | 1018.9 |
| 20260506234522 | 15 | 272 | 8.0 | 11.3 | 0.00 | 0.10 | 0.05 | 35 | 1018.9 |
| 20260506233527 | 16 | 298 | 8.0 | 12.9 | 0.00 | 0.13 | 0.05 | 32 | 1018.9 |
| 20260506232519 | 17 | 292 | 6.4 | 11.3 | 0.00 | 0.15 | 0.05 | 32 | 1018.8 |
| 20260506231523 | 17 | 247 | 8.0 | 11.3 | 0.00 | 0.18 | 0.05 | 32 | 1019.0 |
| 20260506230529 | 16 | 241 | 8.0 | 14.5 | 0.00 | 0.18 | 0.05 | 32 | 1019.0 |
| 20260506225525 | 16 | 276 | 8.0 | 11.3 | 0.00 | 0.20 | 0.05 | 33 | 1019.0 |
| 20260506224526 | 16 | 301 | 9.7 | 16.1 | 0.00 | 0.25 | 0.05 | 32 | 1018.9 |
| 20260506223542 | 16 | 245 | 8.0 | 12.9 | 0.00 | 0.25 | 0.05 | 32 | 1018.9 |
| 20260506222519 | 17 | 307 | 11.3 | 17.7 | 0.00 | 0.28 | 0.05 | 32 | 1018.9 |
| 20260506221540 | 16 | 237 | 4.8 | 9.7 | 0.00 | 0.30 | 0.05 | 34 | 1018.9 |
| 20260506220528 | 17 | 272 | 9.7 | 11.3 | 0.00 | 0.36 | 0.05 | 34 | 1019.0 |
| 20260506215521 | 17 | 232 | 6.4 | 11.3 | 0.00 | 0.43 | 0.05 | 34 | 1019.0 |
| 20260506214527 | 17 | 251 | 9.7 | 12.9 | 0.00 | 0.46 | 0.05 | 34 | 1019.1 |
| 20260506213533 | 16 | 250 | 4.8 | 8.0 | 0.00 | 0.46 | 0.05 | 35 | 1019.1 |
| 20260506212523 | 16 | 201 | 8.0 | 11.3 | 0.00 | 0.48 | 0.05 | 33 | 1019.1 |
| 20260506211550 | 17 | 268 | 12.9 | 17.7 | 0.00 | 0.48 | 0.05 | 32 | 1019.2 |
| 20260506210519 | 16 | 274 | 9.7 | 14.5 | 0.00 | 0.48 | 0.05 | 34 | 1019.3 |
| 20260506205527 | 17 | 69 | 8.0 | 14.5 | 0.00 | 0.53 | 0.05 | 34 | 1019.5 |
| 20260506204531 | 17 | 310 | 12.9 | 19.3 | 0.00 | 0.56 | 0.05 | 33 | 1019.4 |
| 20260506203520 | 17 | 259 | 8.0 | 12.9 | 0.00 | 0.61 | 0.05 | 32 | 1019.4 |
| 20260506202526 | 17 | 270 | 12.9 | 17.7 | 0.00 | 0.61 | 0.05 | 33 | 1019.6 |
| 20260506201521 | 17 | 240 | 11.3 | 14.5 | 0.00 | 0.64 | 0.05 | 31 | 1019.7 |
| 20260506200522 | 17 | 299 | 6.4 | 9.7 | 0.00 | 0.71 | 0.05 | 35 | 1019.7 |
| 20260506195519 | 18 | 256 | 11.3 | 16.1 | 0.00 | 0.76 | 0.05 | 33 | 1019.7 |
| 20260506194527 | 17 | 131 | 4.8 | 8.0 | 0.00 | 0.76 | 0.05 | 39 | 1019.9 |
| 20260506193523 | 18 | 268 | 9.7 | 17.7 | 0.00 | 0.76 | 0.05 | 34 | 1019.9 |
| 20260506192524 | 18 | 253 | 9.7 | 14.5 | 0.00 | 0.76 | 0.05 | 33 | 1020.0 |
| 20260506191518 | 17 | 268 | 6.4 | 11.3 | 0.00 | 0.76 | 0.05 | 34 | 1020.1 |
| 20260506190525 | 17 | 268 | 11.3 | 14.5 | 0.00 | 0.79 | 0.05 | 33 | 1020.2 |
| 20260506185531 | 18 | 267 | 4.8 | 8.0 | 0.00 | 0.79 | 0.05 | 36 | 1020.1 |
| 20260506184520 | 18 | 286 | 4.8 | 9.7 | 0.00 | 0.79 | 0.05 | 36 | 1020.2 |
| 20260506183526 | 17 | 260 | 8.0 | 11.3 | 0.00 | 0.81 | 0.05 | 36 | 1020.2 |
| 20260506182534 | 18 | 288 | 9.7 | 12.9 | 0.00 | 0.81 | 0.05 | 34 | 1020.4 |
| 20260506181544 | 18 | 279 | 9.7 | 12.9 | 0.00 | 0.81 | 0.05 | 35 | 1020.6 |
| 20260506180528 | 18 | 276 | 11.3 | 19.3 | 0.00 | 0.84 | 0.05 | 35 | 1020.6 |
| 20260506175521 | 17 | 141 | 6.4 | 11.3 | 0.00 | 0.84 | 0.05 | 37 | 1020.7 |
| 20260506174524 | 17 | 249 | 8.0 | 16.1 | 0.00 | 0.84 | 0.05 | 35 | 1020.9 |
| 20260506173530 | 17 | 257 | 12.9 | 19.3 | 0.00 | 0.86 | 0.05 | 35 | 1020.9 |
| 20260506172519 | 17 | 283 | 6.4 | 11.3 | 0.00 | 0.86 | 0.05 | 38 | 1020.9 |
| 20260506171525 | 17 | 272 | 8.0 | 19.3 | 0.00 | 0.86 | 0.05 | 39 | 1020.9 |
| 20260506170523 | 17 | 247 | 9.7 | 14.5 | 0.00 | 0.86 | 0.05 | 39 | 1020.7 |
| 20260506165520 | 16 | 179 | 11.3 | 16.1 | 0.00 | 0.86 | 0.05 | 39 | 1020.5 |
| 20260506164521 | 16 | 271 | 8.0 | 11.3 | 0.00 | 0.86 | 0.05 | 38 | 1020.3 |
| 20260506163529 | 16 | 8 | 8.0 | 9.7 | 0.00 | 0.89 | 0.05 | 37 | 1020.2 |
| 20260506162522 | 17 | 248 | 8.0 | 11.3 | 0.00 | 0.89 | 0.05 | 41 | 1020.4 |
| 20260506161531 | 16 | 269 | 4.8 | 8.0 | 0.00 | 0.89 | 0.05 | 44 | 1020.2 |
| 20260506160534 | 16 | 257 | 6.4 | 11.3 | 0.00 | 0.89 | 0.05 | 45 | 1020.1 |